GEFSSE_con_prob3kmehi_012.txt.gz
EHI
0 0 0 0 0 0 0 0 0 0 0 0 0 0 0 0 0 0 0 0 0 0 0 0 0 0 0 0 0 0 0 0 0 0 0 0 0 0 0 0 0 0 0
0 0 0 0 0 0 0 0 0 0 0 0 0 0 0 0 0 0 0 0 0 0 0 0 0 0 0 0 0 0 0 0 0 0 0 0 0 0 0 0 0 0 0
0 0 0 0 0 0 0 0 0 0 0 0 0 0 0 0 0 0 0 0 0 0 0 0 0 0 0 0 0 0 0 0 0 0 0 0 0 0 0 0 0 0 0
0 0 0 0 0 0 0 0 0 0 0 0 0 0 0 0 0 0 0 0 0 0 0 0 0 0 0 0 0 0 0 0 0 0 0 0 0 0 0 0 0 0 0
0 0 0 0 0 0 0 0 0 0 0 0 0 0 0 0 0 0 0 0 0 0 0 0 0 0 0 0 0 0 0 0 0 0 0 0 0 0 0 0 0 0 0
0 0 0 0 0 0 0 0 0 0 0 0 0 0 0 0 0 0 0 0 0 0 0 0 0 0 0 0 0 0 0 0 0 0 0 0 5 8 5 0 0 0 0
0 0 0 0 0 0 0 0 0 0 0 0 0 0 0 0 0 0 0 0 0 0 0 0 0 0 0 0 0 0 0 0 0 0 0 0 10 19 10 0 0 0 0
0 0 0 0 0 0 0 0 0 0 0 0 0 0 0 0 0 0 0 0 0 0 0 0 0 0 0 0 0 0 0 0 0 0 0 0 8 13 7 0 0 0 0
0 0 0 0 0 0 0 0 0 0 0 0 0 0 0 0 0 0 0 0 0 0 0 0 0 0 0 0 0 0 0 0 0 0 0 2 5 4 1 0 1 2 2
0 0 0 0 0 0 0 0 0 0 0 0 0 0 0 0 0 0 0 0 0 0 0 0 0 0 0 0 0 0 0 0 0 0 0 5 7 4 0 0 1 3 5
0 0 0 0 0 0 0 0 0 0 0 0 0 0 0 0 0 0 0 0 0 0 0 0 0 0 0 0 0 0 0 0 0 0 3 9 10 3 0 0 0 2 4
0 0 0 0 0 0 0 0 0 0 0 0 0 0 0 0 0 0 0 0 0 0 0 0 0 0 0 0 0 0 0 0 0 0 7 14 9 1 0 0 0 0 1
0 0 0 0 0 0 0 0 0 0 0 0 0 0 0 0 0 0 0 0 0 0 0 0 0 0 0 0 0 0 0 0 0 0 7 13 7 0 0 0 0 0 0
0 0 0 0 0 0 0 0 0 0 0 0 0 0 0 0 0 0 0 0 0 0 0 0 0 0 0 0 0 0 0 0 0 0 3 5 3 0 0 0 0 0 0
0 0 0 0 0 0 0 0 0 0 0 0 0 0 0 0 0 0 0 0 0 0 0 0 0 0 0 0 0 0 0 0 0 0 0 0 0 0 0 0 0 0 0
0 0 0 0 0 0 0 0 0 0 0 0 0 0 0 0 0 0 0 0 0 0 0 0 0 0 0 0 0 0 0 0 0 0 0 0 0 0 0 0 0 0 0
0 0 0 0 0 0 0 0 0 0 0 0 0 0 0 0 0 0 0 0 0 0 0 0 0 0 0 0 0 0 0 0 0 0 0 0 0 0 0 0 0 0 0
0 0 0 0 0 0 0 0 0 0 0 0 0 0 0 0 0 0 0 0 0 0 0 0 0 0 0 0 0 0 0 0 0 0 0 0 0 0 0 0 0 0 0
0 0 0 0 0 0 2 4 4 5 5 4 1 0 0 0 0 0 0 0 0 0 0 0 0 0 0 0 0 0 0 0 0 0 0 0 0 0 0 0 0 0 0
2 2 2 2 3 5 11 18 20 21 21 16 8 2 0 0 0 0 0 0 0 0 0 0 0 0 0 0 0 0 0 0 0 0 0 0 0 0 0 0 0 0 0
12 11 10 9 10 15 25 35 41 40 35 28 17 6 1 1 0 0 0 0 0 0 0 0 0 0 0 0 0 0 0 0 0 0 0 0 0 0 0 0 0 0 0
23 22 18 16 15 20 33 49 55 49 39 31 21 10 4 3 1 0 0 0 0 0 0 0 0 0 0 0 0 0 0 0 0 0 0 0 0 0 0 0 0 0 0
24 22 21 22 23 25 38 53 60 53 41 32 26 18 10 6 3 1 0 0 0 0 0 0 0 0 0 0 0 0 0 0 0 0 0 0 0 0 0 0 0 0 0
30 28 30 35 38 38 41 48 52 47 38 34 34 29 20 12 6 2 0 0 0 0 0 0 0 0 0 0 0 0 0 0 0 0 0 0 0 0 0 0 0 0 0
39 40 43 44 45 42 35 32 31 27 24 27 31 31 27 21 12 4 1 1 0 0 0 0 0 0 0 0 0 0 0 0 0 0 0 0 0 0 0 0 0 0 0
37 43 45 43 41 35 25 19 16 14 14 17 22 28 30 27 17 6 2 2 1 0 0 0 0 0 0 0 0 0 1 1 1 0 0 0 0 0 0 0 0 0 0

GEFSSE_con_prob3kmehi_018.txt.gz
EHI
0 0 0 0 0 0 0 0 0 0 0 0 0 0 0 0 0 0 0 0 0 0 0 0 0 0 0 0 0 0 0 0 0 0 0 0 0 0 0 0 0 0 0
0 0 0 0 0 0 0 0 0 0 0 0 0 0 0 0 0 0 0 0 0 0 0 0 0 0 0 0 0 0 0 0 0 0 0 0 0 0 0 0 0 0 0
0 0 0 0 0 0 0 0 0 0 0 0 0 0 0 0 0 0 0 0 0 0 0 0 0 0 0 0 0 0 0 0 0 0 0 0 0 0 0 0 0 0 0
0 0 0 0 0 0 0 0 0 0 0 0 0 0 0 0 0 0 0 0 0 0 0 0 0 0 0 0 0 0 0 0 0 0 0 0 0 0 0 0 0 0 0
1 0 0 0 0 0 0 0 0 0 0 0 0 0 0 0 0 0 0 0 0 0 0 0 0 0 0 0 0 0 0 0 0 0 0 0 0 0 0 0 0 0 0
4 2 0 0 0 0 0 0 0 0 0 0 0 0 0 0 0 0 0 0 0 0 0 0 0 0 0 0 0 0 0 0 0 0 0 2 5 6 2 0 0 0 0
11 5 0 0 0 0 0 0 0 0 0 0 0 0 0 0 0 0 0 0 0 0 0 0 0 0 0 0 0 0 0 0 0 0 0 9 25 28 14 3 0 0 0
20 9 0 0 0 0 0 0 0 0 0 0 0 0 0 0 0 0 0 0 0 0 0 0 0 0 0 0 0 0 0 0 0 0 0 18 51 62 40 17 5 2 1
23 10 0 0 0 0 0 0 0 0 0 0 0 0 0 0 0 0 0 0 0 0 0 0 0 0 0 0 0 0 0 0 0 0 0 23 66 85 67 42 21 11 8
19 8 0 0 0 0 0 0 0 0 0 0 0 0 0 0 1 1 2 2 2 1 1 0 0 0 0 0 0 0 0 0 0 0 2 28 73 92 78 57 37 24 20
10 5 3 2 1 0 0 1 0 0 0 0 0 0 0 0 1 3 8 14 14 6 2 0 0 0 0 0 0 0 0 0 0 0 9 42 81 92 77 58 40 30 29
4 4 8 10 5 0 2 2 1 4 6 4 2 3 2 0 1 3 14 29 24 9 2 0 0 0 0 0 0 0 0 0 0 0 16 55 87 90 76 55 36 26 25
2 2 13 19 10 1 2 2 1 10 17 12 9 11 4 0 1 6 19 28 20 6 1 0 0 0 0 0 0 0 0 0 0 1 18 51 75 74 62 45 28 17 14
1 3 15 24 14 2 1 2 1 9 17 14 15 14 5 1 4 11 21 22 11 3 1 1 0 0 0 0 0 0 0 0 0 1 14 34 46 44 35 25 15 8 5
0 5 21 33 27 13 6 4 2 4 7 9 13 13 6 5 10 15 18 15 8 3 3 2 1 0 0 0 0 0 0 0 0 1 10 24 34 32 23 12 6 3 2
2 13 33 48 51 39 20 8 3 2 3 4 10 15 13 11 15 18 16 10 5 4 4 3 1 0 0 0 0 0 1 0 0 0 5 19 34 41 33 16 4 1 1
15 31 47 52 62 65 45 20 8 4 7 10 17 27 29 21 21 25 21 14 10 8 6 3 0 0 0 0 0 1 4 7 5 2 2 9 21 37 43 31 15 5 1
46 60 59 44 55 78 74 47 22 14 21 32 41 50 50 38 35 40 34 26 23 18 11 5 1 1 0 0 0 1 7 17 17 9 3 3 10 22 35 40 33 20 9
78 84 72 47 54 80 90 74 44 32 40 52 62 69 68 59 58 62 54 42 34 29 20 9 5 3 2 0 0 1 6 20 29 22 11 8 15 20 19 25 33 26 15
94 95 87 71 68 82 93 89 72 58 55 58 64 70 72 71 75 78 70 55 46 40 29 18 11 7 3 1 0 0 2 15 34 35 20 11 16 19 10 7 13 13 10
99 99 97 92 88 90 95 95 91 82 70 61 58 59 62 67 72 74 72 68 61 51 38 26 18 11 4 1 0 0 0 10 27 34 24 12 9 9 4 0 1 1 2
100 100 100 99 98 97 97 98 97 93 81 66 58 57 57 57 56 57 67 74 70 57 42 30 23 15 6 2 1 0 0 5 13 17 18 14 5 1 0 0 0 0 0
98 98 98 99 98 97 97 97 95 90 80 69 65 64 61 54 49 51 62 71 68 57 42 29 21 13 7 4 3 1 0 1 2 4 8 12 10 5 1 0 0 0 1
92 93 94 95 95 94 94 94 93 89 83 78 76 74 68 61 55 54 58 63 63 55 41 26 17 12 8 4 2 1 0 0 0 0 2 8 12 8 2 1 0 2 3
80 80 84 88 89 86 85 86 89 90 89 87 84 80 76 70 63 54 51 53 53 47 36 23 15 12 8 4 2 0 0 0 0 0 1 3 6 6 5 3 2 2 4
67 69 73 81 83 78 76 78 83 90 91 88 86 83 80 77 66 51 43 43 42 38 31 19 12 10 7 5 2 1 0 0 0 0 0 0 0 3 6 6 3 2 3

GEFSSE_con_prob3kmehi_024.txt.gz
EHI
0 0 0 0 0 0 0 0 0 0 0 0 0 0 0 0 0 0 0 0 0 0 0 0 0 0 0 0 0 0 0 0 0 0 0 0 0 0 0 1 0 0 0
0 0 0 0 0 0 0 0 0 0 0 0 0 0 0 0 0 0 0 0 0 0 0 0 0 0 0 0 0 0 0 0 0 0 0 0 0 0 0 1 0 0 0
0 0 0 0 0 0 0 0 0 0 0 0 0 0 0 0 0 0 0 0 0 0 0 0 0 0 0 0 0 0 0 0 0 0 0 0 0 0 0 0 0 0 0
0 0 0 0 0 0 0 0 0 0 0 0 0 0 0 0 0 0 0 0 0 0 0 0 0 0 0 0 0 0 0 0 0 0 0 0 0 0 0 0 0 0 0
0 0 0 0 0 0 0 0 0 0 0 0 0 0 0 0 0 0 0 0 0 0 0 0 0 0 0 0 0 0 0 0 0 0 0 0 0 0 0 0 0 0 0
0 0 0 0 0 0 0 0 0 0 0 0 0 0 0 0 0 0 0 0 0 0 0 0 0 0 0 0 0 0 0 0 0 0 0 0 0 2 2 1 0 0 0
0 0 0 0 0 0 0 0 0 0 0 0 0 0 0 0 0 0 0 0 0 0 0 0 0 0 0 0 0 0 0 0 0 0 0 0 1 7 10 6 1 0 0
0 0 0 0 0 0 0 0 0 0 0 0 0 0 0 0 0 0 0 0 0 0 0 0 0 0 0 0 0 0 0 0 0 0 0 0 1 11 20 14 5 2 1
0 0 0 0 0 0 0 0 0 0 0 0 0 0 0 0 0 0 0 0 0 0 0 0 0 0 0 0 0 0 0 0 0 0 0 0 1 10 21 20 11 6 3
0 0 0 0 0 0 0 0 0 0 0 0 0 0 0 0 0 0 0 0 1 1 1 1 1 0 0 0 0 0 0 0 0 0 0 0 1 9 22 29 24 15 9
0 0 0 0 0 0 0 0 0 0 0 0 0 0 0 0 0 0 0 1 2 3 3 3 2 1 0 0 0 0 0 0 0 0 0 0 1 10 28 42 40 27 16
0 0 0 0 0 0 0 0 0 0 0 0 0 0 0 0 0 0 0 1 2 3 3 3 2 1 0 0 0 0 0 0 0 0 0 0 0 8 26 44 43 29 19
0 0 0 0 0 0 0 0 0 0 0 0 0 0 0 0 0 0 0 1 1 1 1 1 1 1 0 0 0 0 0 0 0 0 0 0 0 3 15 27 27 17 11
0 0 0 0 0 0 0 0 0 0 0 0 0 0 0 0 0 0 0 0 0 0 0 0 0 0 0 0 0 0 0 0 0 0 0 1 1 3 7 9 9 5 3
1 1 0 0 0 0 0 0 0 0 0 0 0 0 0 0 0 0 0 0 0 0 0 0 0 0 0 0 0 0 0 0 0 0 0 2 3 4 3 2 2 2 1
6 7 4 1 1 1 1 0 1 1 1 0 0 0 0 0 0 0 0 0 0 0 0 0 0 0 0 0 0 0 0 0 0 0 0 1 3 3 3 3 3 2 1
15 17 13 5 4 5 4 2 2 3 3 1 0 0 0 0 0 0 1 1 0 0 0 0 0 0 0 0 0 0 0 0 0 0 0 0 1 1 3 4 4 3 2
19 25 25 20 16 14 9 5 4 5 5 3 1 0 0 0 0 1 2 2 1 0 0 0 0 0 0 0 0 0 0 0 0 0 0 0 0 0 1 3 5 5 4
18 27 34 37 36 31 21 11 6 5 4 3 1 1 1 1 1 3 4 4 3 1 1 0 0 0 0 0 0 0 0 0 0 0 0 0 0 0 0 2 5 6 5
20 28 40 47 55 57 47 32 18 8 3 1 1 1 1 2 4 4 3 4 4 4 3 1 1 0 0 0 0 0 0 0 0 0 0 0 0 0 0 1 2 3 2
31 38 46 54 67 78 76 61 39 19 7 2 1 1 1 3 5 4 3 4 6 6 5 4 2 1 0 0 0 0 0 0 0 0 0 0 0 0 0 0 0 0 0
51 54 57 64 74 85 89 81 64 43 24 11 4 1 1 2 3 3 3 5 7 7 6 4 3 1 0 0 0 0 0 0 0 0 0 0 0 0 0 0 0 0 0
69 70 69 71 76 83 89 89 81 64 41 19 6 1 0 0 1 1 2 4 5 6 5 3 2 1 0 0 0 0 0 0 0 0 0 0 0 0 0 0 0 0 0
79 78 75 70 68 71 76 79 75 60 37 16 5 1 0 1 1 1 1 1 2 3 2 1 1 1 0 0 0 0 0 0 0 0 0 0 0 0 0 0 0 0 0
71 70 65 57 49 48 53 56 53 41 24 11 4 1 0 1 2 2 1 0 0 1 1 0 0 0 0 0 0 0 0 0 0 0 0 0 0 0 0 0 0 0 0
57 56 52 43 33 32 37 41 39 30 20 11 4 1 0 1 1 1 1 0 0 0 0 0 0 0 0 0 0 0 0 0 0 0 0 0 0 0 0 0 0 0 0

GEFSSE_con_prob3kmehi_030.txt.gz
EHI
0 0 0 0 0 0 0 0 0 0 0 0 0 0 0 0 0 0 0 0 0 0 0 0 0 0 0 0 0 0 0 0 0 0 0 0 0 0 0 0 0 0 0
0 0 0 0 0 0 0 0 0 0 0 0 0 0 0 0 0 0 0 0 0 0 0 0 0 0 0 0 0 0 0 0 0 0 0 0 0 0 0 0 0 0 0
0 0 0 0 0 0 0 0 0 0 0 0 0 0 0 0 0 0 0 0 0 0 0 0 0 0 0 0 0 0 0 0 0 0 0 0 0 0 0 0 0 0 0
0 0 0 0 0 0 0 0 0 0 0 0 0 0 0 0 0 0 0 0 0 0 0 0 0 0 0 0 0 0 0 0 0 0 0 0 0 0 0 0 0 0 0
0 0 0 0 0 0 0 0 0 0 0 0 0 0 0 0 0 0 0 0 0 0 0 0 0 0 0 0 0 0 0 0 0 0 0 0 0 0 0 0 0 0 0
0 0 0 0 0 0 0 0 0 0 0 0 0 0 0 0 0 0 0 0 0 0 0 0 0 0 0 0 0 0 0 0 0 0 0 0 0 0 0 0 0 0 0
0 0 0 0 0 0 0 0 0 0 0 0 0 0 0 0 0 0 0 0 0 0 0 0 0 0 0 0 0 0 0 0 0 0 0 0 0 0 0 0 0 0 0
0 0 0 0 0 0 0 0 0 0 0 0 0 0 0 0 0 0 0 0 0 0 0 0 0 0 0 0 0 0 0 0 0 0 0 0 0 0 0 0 0 0 0
0 0 0 0 0 0 0 0 0 0 0 0 0 0 0 0 0 0 0 0 0 0 0 0 0 0 0 0 0 0 0 0 0 0 0 0 0 0 0 0 0 0 0
0 0 0 0 0 0 0 0 0 0 0 0 0 0 0 0 0 0 0 0 0 0 0 0 0 0 0 0 0 0 0 0 0 0 0 0 0 0 0 0 0 0 0
0 0 0 0 0 0 0 0 0 0 0 0 0 0 0 0 0 0 0 0 0 0 0 0 0 0 0 0 0 0 0 0 0 0 0 0 0 0 0 0 0 0 0
0 0 0 0 0 0 0 0 0 0 0 0 0 0 0 0 0 0 0 0 0 0 0 0 0 0 0 0 0 0 0 0 0 0 0 0 0 0 0 0 0 0 0
0 0 0 0 0 0 0 0 0 0 0 0 0 0 0 0 0 0 0 0 0 0 0 0 0 0 0 0 0 0 0 0 0 0 0 0 0 0 0 0 0 0 0
0 0 0 0 0 0 0 0 0 0 0 0 0 0 0 0 0 0 0 0 0 0 0 0 0 0 0 0 0 0 0 0 0 0 0 0 0 0 0 0 0 0 0
0 0 0 0 0 0 0 0 0 0 0 0 0 0 0 0 0 0 0 0 0 0 0 0 0 0 0 0 0 0 0 0 0 0 0 0 0 0 0 0 0 0 0
0 0 0 0 0 0 0 0 0 0 0 0 0 0 0 0 0 0 0 0 0 0 0 0 0 0 0 0 0 0 0 0 0 0 0 0 0 0 0 0 0 0 0
1 1 0 0 0 0 0 0 0 0 0 0 0 0 0 0 0 0 0 0 0 0 0 0 0 0 0 0 0 0 0 0 0 0 0 0 0 0 0 0 0 0 0
7 5 2 1 0 0 1 1 0 0 0 0 0 0 0 0 0 0 0 0 0 0 0 0 0 0 0 0 0 0 0 0 0 0 0 0 0 0 0 0 0 0 0
17 13 8 6 3 1 1 1 0 0 0 0 0 0 0 0 0 0 0 0 0 0 0 0 0 0 0 0 0 0 0 0 0 0 0 0 0 0 0 0 0 0 0
23 22 20 18 14 11 12 10 7 4 2 1 1 0 0 0 0 0 0 0 0 0 0 0 0 0 0 0 0 0 0 0 0 0 0 0 0 0 0 0 0 0 0
21 23 28 32 32 34 38 36 27 18 9 4 2 1 0 0 0 0 0 0 0 0 0 0 0 0 0 0 0 0 0 0 0 0 0 0 0 0 0 0 0 0 0
19 20 26 35 44 51 58 61 53 37 21 9 4 1 0 0 0 0 0 0 0 0 0 1 0 0 0 0 0 0 0 0 0 0 0 0 0 0 0 0 0 0 0
20 20 22 27 37 48 58 64 61 48 31 16 5 1 0 0 0 0 0 0 0 0 0 0 0 0 0 0 0 0 0 0 0 0 0 0 0 0 0 0 0 0 0
19 18 18 18 23 34 45 52 53 47 33 17 6 1 0 0 1 0 0 0 0 0 0 0 0 1 1 1 0 0 0 0 0 0 0 0 0 0 0 0 0 0 0
14 13 13 14 15 20 29 38 43 40 27 12 3 0 0 0 0 0 0 0 0 0 0 0 0 0 0 0 0 0 0 0 0 0 0 0 0 0 0 0 0 0 0
11 9 10 13 13 14 20 30 37 33 20 8 1 0 0 0 0 0 0 0 0 0 0 0 0 0 0 0 0 0 0 0 0 0 0 0 0 0 0 0 0 0 0

GEFSSE_con_prob3kmehi_036.txt.gz
EHI
0 0 0 0 0 0 0 0 0 1 0 0 0 0 0 0 0 0 0 0 0 0 0 0 0 0 0 0 0 0 0 0 0 0 0 0 0 0 0 0 0 0 0
0 0 0 0 0 0 0 0 0 1 0 0 0 0 0 0 0 0 0 0 0 0 0 0 0 0 0 0 0 0 0 0 0 0 0 0 0 0 0 0 0 0 0
0 0 0 0 0 0 0 0 0 0 0 0 0 0 0 0 0 0 0 0 0 0 0 0 0 0 0 0 0 0 0 0 0 0 0 0 0 0 0 0 0 0 0
0 0 0 0 0 0 0 0 0 0 0 0 0 0 0 0 0 0 0 0 0 0 0 0 0 0 0 0 0 0 0 0 0 0 0 0 0 0 0 0 0 0 0
0 0 0 0 0 0 0 0 0 0 0 0 0 0 0 0 0 0 0 0 0 0 0 0 0 0 0 0 0 0 0 0 0 0 0 0 0 0 0 0 0 0 1
0 0 0 0 0 0 0 0 0 0 0 0 0 0 0 0 0 0 0 0 0 0 0 0 0 0 0 0 0 0 0 0 0 0 0 0 1 1 1 0 0 0 1
0 0 0 0 0 0 0 0 0 0 0 0 0 0 0 0 0 0 0 0 0 0 0 0 0 0 0 0 0 0 0 0 0 0 0 0 1 1 1 0 0 0 1
0 0 0 0 0 0 0 0 0 0 0 0 0 0 0 0 0 0 0 0 0 0 0 0 0 0 0 0 0 0 0 0 0 0 0 1 2 2 0 0 0 0 0
0 0 0 0 0 0 0 0 0 0 0 0 0 0 0 0 0 0 0 0 0 0 0 0 0 0 0 0 0 0 0 0 0 0 0 2 5 3 0 0 0 0 0
0 0 0 0 0 0 0 0 0 0 0 0 0 0 0 0 0 0 0 0 0 0 0 0 0 0 0 0 0 0 0 0 0 0 0 3 5 3 0 0 0 0 0
0 0 0 0 0 0 0 0 0 0 0 0 0 0 0 0 0 0 0 0 0 0 0 0 0 0 0 0 0 0 0 0 0 0 1 3 3 1 0 0 0 0 0
0 0 0 0 0 0 0 0 0 0 0 0 0 0 0 0 0 0 0 1 0 0 0 0 0 0 0 0 0 1 0 0 0 0 4 7 4 0 0 0 0 0 0
0 0 0 0 0 0 0 0 0 0 1 0 0 0 0 0 0 0 0 0 0 0 0 0 0 0 0 0 0 0 0 0 0 0 5 11 7 1 0 0 0 1 1
0 0 0 0 0 0 0 0 0 0 0 0 0 0 0 0 0 0 0 0 0 0 0 0 0 0 0 0 0 0 0 0 0 0 6 11 7 1 0 0 0 1 1
0 0 0 0 0 0 0 0 0 0 0 0 0 0 0 0 1 1 0 0 0 0 0 0 0 0 0 0 0 0 0 0 0 0 4 10 9 3 0 0 0 0 1
0 0 0 0 0 0 0 0 0 0 0 0 1 1 1 1 2 2 1 1 0 0 0 0 0 0 0 0 0 0 0 0 0 0 1 6 10 7 2 1 0 0 1
0 1 1 0 0 1 2 1 0 0 0 1 2 3 3 3 3 3 3 2 1 1 1 1 0 0 0 0 0 0 1 1 0 0 1 3 6 6 5 3 1 1 2
3 5 5 3 2 4 5 4 3 3 3 4 6 9 9 7 6 6 6 5 3 3 3 2 1 1 2 1 0 0 1 1 1 1 2 2 3 4 4 4 3 2 2
10 14 18 16 13 11 10 10 10 10 10 13 20 25 26 22 18 17 14 10 8 7 6 4 3 4 4 2 1 0 1 1 2 2 2 2 2 2 2 3 4 2 1
21 28 38 42 41 37 33 32 30 26 26 32 39 44 44 42 37 32 25 18 15 14 10 6 5 5 5 4 2 1 1 1 1 2 2 1 1 1 0 1 2 1 1
33 42 55 63 66 69 68 64 58 52 49 51 55 55 54 51 47 41 35 28 25 22 15 8 7 7 5 6 6 4 1 0 1 2 2 1 1 0 0 0 1 1 2
48 54 63 68 72 78 83 81 76 71 66 64 65 63 58 52 46 42 39 35 31 27 20 13 9 8 6 8 10 8 3 0 0 1 2 2 1 0 0 0 1 2 2
56 59 63 67 68 70 72 74 73 71 68 66 69 70 62 53 47 44 39 36 33 29 23 17 12 9 9 11 12 11 6 2 0 0 1 2 2 1 0 0 1 1 1
52 52 57 62 63 62 62 64 65 64 63 65 70 71 65 54 49 44 36 33 31 28 24 20 16 14 13 14 13 10 7 4 2 1 1 1 2 1 0 0 0 0 0
39 38 43 53 57 57 58 61 63 63 64 67 70 71 67 57 48 38 31 30 29 27 26 24 20 17 15 12 9 7 5 4 4 4 2 0 1 1 0 0 0 0 1
25 29 35 46 53 55 56 60 63 66 68 70 72 73 69 60 45 32 28 29 29 28 28 25 19 16 13 8 4 3 3 3 4 4 2 0 0 0 0 0 0 1 1

GEFSSE_con_prob3kmehi_042.txt.gz
EHI
0 10 20 12 1 0 0 0 0 0 0 0 0 0 0 0 0 0 0 0 0 0 0 0 0 0 0 0 0 0 0 0 0 0 0 0 0 0 0 0 0 0 0
0 9 18 12 2 0 0 0 0 0 0 0 0 0 0 0 0 0 0 0 0 0 0 0 0 0 0 0 0 0 0 0 0 0 0 0 0 0 0 0 0 0 0
0 5 10 9 2 0 0 0 0 0 0 0 0 0 0 0 0 0 0 0 0 0 0 0 0 0 0 0 0 0 0 0 0 0 0 0 0 0 0 0 0 0 0
0 2 5 6 3 0 0 0 0 0 0 0 0 0 0 0 0 0 0 0 0 0 0 0 0 0 0 0 0 0 0 0 0 0 0 0 1 1 0 0 0 0 0
0 1 5 7 4 1 0 0 0 0 0 0 0 0 0 0 0 0 0 0 0 0 0 0 0 0 0 0 0 0 0 0 0 0 0 1 4 7 5 1 0 0 0
0 1 5 8 6 2 0 0 0 0 0 0 0 0 0 0 0 0 0 0 0 0 0 0 0 0 0 0 0 0 0 0 0 0 0 4 17 28 22 9 3 1 0
5 4 6 9 8 4 1 0 0 0 0 0 0 0 0 0 0 0 0 0 0 0 0 0 0 0 0 0 0 0 0 0 0 0 0 11 39 60 49 27 11 4 1
17 13 9 10 11 6 2 0 0 0 0 0 0 0 0 0 0 0 0 0 0 0 0 0 0 0 0 0 0 0 0 0 0 0 0 18 57 83 74 46 22 8 2
32 24 12 8 9 6 2 1 1 0 0 0 0 0 0 0 0 0 0 0 0 1 1 1 0 0 0 0 0 0 0 0 0 0 0 22 66 92 84 58 28 10 4
42 33 15 4 4 3 2 2 2 1 1 1 0 0 0 0 0 1 1 2 2 3 3 2 1 1 1 3 5 5 3 1 0 0 2 28 72 94 83 57 27 9 3
46 43 28 11 4 1 1 1 2 2 2 2 1 1 1 0 0 3 12 22 25 20 14 9 5 4 3 6 15 17 10 2 0 0 10 42 80 92 79 52 25 7 3
51 53 48 34 18 5 3 5 3 2 4 4 5 9 8 3 1 7 30 55 60 45 27 14 9 6 4 6 15 22 12 2 0 1 21 62 90 91 77 54 28 11 5
60 60 64 64 46 20 13 16 9 6 10 9 12 22 20 9 2 11 40 68 72 55 30 17 14 10 5 4 9 13 10 3 1 5 32 73 95 92 81 63 40 21 11
73 70 77 86 74 47 36 36 23 14 19 24 30 37 33 20 11 16 42 65 65 52 41 32 28 20 12 7 5 5 5 3 2 11 42 78 94 93 88 76 57 37 25
82 81 88 96 91 76 69 65 48 34 36 47 57 61 52 42 34 37 56 73 65 53 55 56 47 38 29 15 5 3 4 3 4 16 46 79 95 96 92 84 71 55 44
82 85 92 98 97 94 90 84 70 55 54 62 73 80 76 68 65 70 80 86 75 59 60 66 61 56 44 25 11 6 7 7 8 17 40 71 91 96 93 86 76 66 60
81 86 93 96 97 98 96 89 74 59 55 65 78 86 88 87 87 92 93 91 83 72 67 70 69 61 48 33 20 13 12 12 13 20 38 60 78 87 89 84 75 68 65
88 93 95 94 96 99 98 90 75 59 56 69 83 90 94 95 96 97 95 89 84 79 74 73 72 64 52 41 28 18 13 13 14 22 36 52 64 74 79 80 75 69 65
96 98 98 96 97 99 100 95 84 74 73 80 88 94 96 97 98 99 96 91 85 79 75 73 72 68 61 49 31 17 12 11 12 16 24 35 47 58 64 70 72 67 61
99 100 100 99 99 100 100 98 94 89 89 90 92 95 96 97 99 99 97 92 88 83 78 74 70 66 62 51 30 15 11 9 7 8 12 17 26 35 43 55 64 61 56
98 99 99 100 100 100 100 100 98 97 96 96 96 95 95 96 97 98 96 93 91 87 81 73 67 60 54 46 32 19 11 7 5 7 13 19 20 22 28 40 51 56 56
93 94 96 98 100 100 99 99 100 100 100 99 98 96 95 95 94 94 94 93 92 88 80 70 63 54 44 39 32 19 9 6 5 8 18 29 34 34 32 30 35 43 48
79 82 88 94 98 98 98 98 99 99 99 99 98 96 96 94 91 90 90 90 90 87 78 67 57 48 40 36 28 16 7 4 4 8 15 27 40 44 36 23 18 23 28
52 58 70 83 93 96 97 97 97 96 96 96 95 95 96 94 89 86 85 85 86 84 75 65 56 49 41 33 24 13 6 4 4 4 7 14 25 32 26 15 10 11 12
26 31 42 60 78 87 90 91 92 92 91 90 91 92 93 92 88 85 83 84 84 80 72 64 59 53 41 30 21 13 8 4 3 2 2 4 8 12 13 9 7 6 5
13 16 24 41 62 75 80 83 86 87 86 86 87 90 90 88 87 86 84 84 83 77 70 65 61 54 40 28 20 15 9 5 3 1 0 0 1 3 6 6 5 4 4

GEFSSE_con_prob3kmehi_048.txt.gz
EHI
3 23 47 39 14 2 0 0 0 0 0 0 0 0 0 0 0 0 0 0 0 0 0 0 0 0 0 0 0 0 0 0 0 0 0 0 0 0 0 1 0 0 0
6 25 50 46 20 5 1 0 0 0 0 0 0 0 0 0 0 0 0 0 0 0 0 0 0 0 0 0 0 0 0 0 0 0 0 0 0 0 1 2 1 0 0
12 25 49 53 32 12 3 1 0 0 0 0 0 0 0 0 0 0 0 0 0 0 0 0 0 0 0 0 0 0 0 0 0 0 0 0 0 0 1 3 2 1 1
14 23 45 60 46 22 8 3 1 0 0 0 0 0 0 0 0 0 0 0 0 0 0 0 0 0 0 0 0 0 0 0 0 0 0 0 0 0 1 3 3 2 2
10 21 47 68 60 35 16 6 1 0 0 0 0 0 0 0 0 0 0 0 0 0 0 0 0 0 0 0 0 0 0 0 0 0 0 0 0 0 2 3 3 3 3
8 21 50 74 70 48 26 11 3 0 0 0 0 0 0 0 0 0 0 0 0 0 0 0 0 0 0 0 0 0 0 0 0 0 0 0 0 3 9 12 9 6 4
10 20 47 75 78 59 35 17 8 3 1 0 0 0 0 0 0 0 0 0 0 0 0 0 0 0 0 0 0 0 0 0 0 0 0 0 0 7 22 30 27 18 13
10 17 38 65 74 63 43 25 14 7 3 1 0 0 0 0 0 0 0 0 0 0 0 0 0 0 0 0 0 0 0 0 0 0 0 0 1 11 34 51 49 38 31
7 11 24 40 52 53 43 30 20 13 7 3 1 0 0 0 0 0 0 0 0 0 0 0 1 1 0 0 0 0 0 0 0 0 0 0 1 13 41 65 68 58 53
4 8 14 21 28 33 33 29 24 18 11 6 2 0 0 0 0 0 0 0 0 1 1 2 2 2 1 1 2 2 1 0 0 0 0 0 1 13 42 72 81 76 72
4 7 13 17 18 20 22 25 24 20 13 6 2 0 0 0 0 0 0 1 2 2 4 7 7 5 3 2 4 4 2 2 2 1 0 1 2 12 41 74 88 85 81
7 8 14 18 17 16 17 19 20 18 10 4 1 1 1 0 0 0 0 2 3 4 6 10 11 7 3 2 3 3 2 3 4 2 1 2 6 17 45 76 88 85 82
17 13 13 15 15 11 10 11 14 14 8 4 3 2 2 1 0 0 0 1 2 3 5 7 8 6 3 1 1 0 0 2 3 2 1 4 12 27 53 78 87 83 79
32 25 16 13 10 6 4 4 7 8 7 6 4 3 3 2 1 0 0 0 2 5 7 6 4 3 2 1 1 1 1 1 2 1 1 7 19 38 62 81 86 82 78
49 40 28 20 11 5 3 3 4 4 5 5 4 5 6 7 5 2 0 1 5 12 14 10 5 2 1 1 1 2 3 3 3 3 3 8 24 45 67 81 84 81 77
62 57 48 37 25 20 19 19 18 15 12 11 10 12 19 23 20 12 6 7 15 22 22 15 7 4 3 2 2 3 4 4 3 4 3 7 20 40 61 73 75 75 75
68 70 68 59 51 49 51 52 49 44 36 30 27 30 39 47 45 36 26 25 31 34 30 21 12 9 9 7 6 6 4 3 3 4 3 4 10 24 41 51 55 60 64
69 76 80 76 74 75 76 76 75 69 60 50 44 45 53 61 64 61 54 49 50 48 41 29 19 15 15 14 12 8 5 3 3 3 3 2 3 9 17 25 31 37 40
70 76 81 81 82 84 84 82 79 75 67 55 46 46 52 61 69 73 73 70 66 61 53 40 28 22 21 19 15 9 4 2 2 2 1 1 1 2 4 8 14 17 17
68 72 75 76 78 82 83 79 76 72 63 52 43 38 42 54 65 73 78 78 73 67 59 48 36 27 22 17 12 7 2 1 0 0 0 0 0 0 1 3 5 6 5
59 62 66 68 71 74 76 74 72 69 63 55 47 38 35 43 57 67 75 76 72 67 60 49 39 28 18 12 7 3 1 0 0 0 0 0 0 0 0 1 2 2 2
45 47 52 56 58 60 61 61 61 61 60 58 53 44 38 40 49 58 65 68 68 64 58 48 38 29 18 9 4 1 0 0 0 0 0 0 0 0 0 0 1 2 2
33 34 36 40 43 41 40 43 45 48 50 51 49 44 39 40 45 49 54 59 63 62 57 49 39 30 20 9 4 2 0 0 0 0 0 0 0 0 0 0 0 1 1
29 28 28 29 29 26 24 26 29 32 35 34 33 31 31 33 37 40 44 48 52 53 52 45 36 29 20 10 5 3 1 0 0 0 0 0 0 0 0 0 0 0 0
25 25 24 23 23 19 15 14 14 15 16 15 15 16 17 19 22 25 30 35 38 40 40 35 30 26 20 12 7 5 2 0 0 0 0 0 0 0 0 0 0 0 0
22 22 22 22 20 15 10 6 5 5 4 4 6 7 8 9 10 14 19 25 29 32 31 27 24 24 20 13 9 6 3 1 0 0 0 0 0 0 0 0 0 0 0

GEFSSE_con_prob3kmehi_054.txt.gz
EHI
0 5 9 7 1 0 0 1 4 8 9 5 3 2 1 0 0 0 0 0 0 0 0 0 0 0 0 0 0 0 0 0 0 0 0 0 0 0 0 0 0 0 0
0 4 11 10 5 2 1 0 2 5 6 4 2 1 0 0 0 0 0 0 0 0 0 0 0 0 0 0 0 0 0 0 0 0 0 0 0 0 0 0 0 0 0
0 2 9 15 13 7 4 1 1 3 4 2 1 0 0 0 0 0 0 0 0 0 0 0 0 0 0 0 0 0 0 0 0 0 0 0 0 0 0 0 0 0 0
0 0 8 20 23 17 12 7 4 4 3 2 1 1 1 0 0 0 0 0 0 0 0 0 0 0 0 0 0 0 0 0 0 0 0 0 0 0 0 0 0 0 0
0 0 11 28 33 28 22 17 11 6 3 2 2 2 2 1 0 0 0 0 0 0 0 0 0 0 0 0 0 0 0 0 0 0 0 0 0 0 0 0 0 0 0
0 0 13 33 40 35 31 25 18 10 4 3 3 3 2 1 0 0 0 0 0 0 0 0 0 0 0 0 0 0 0 0 0 0 0 0 0 0 0 0 0 0 0
1 0 13 34 42 38 35 30 22 13 7 4 3 2 1 0 0 0 0 0 0 0 0 0 0 0 0 0 0 0 0 0 0 0 0 0 0 0 0 0 0 0 0
1 1 10 27 36 36 34 30 23 15 8 5 3 1 0 0 0 0 0 0 0 0 0 0 0 0 0 0 0 0 0 0 0 0 0 0 0 0 0 0 0 0 1
2 3 6 14 23 27 29 28 23 15 9 5 2 1 0 0 0 0 0 0 0 0 0 0 0 0 0 0 0 0 0 0 0 0 0 0 0 0 0 0 0 1 2
5 6 7 11 15 18 22 24 24 19 12 6 3 1 1 0 0 0 0 0 0 0 0 0 0 0 0 0 0 0 0 0 0 0 0 0 0 0 0 0 0 1 2
6 9 12 15 17 16 17 19 22 21 15 9 5 3 2 1 0 0 0 0 0 0 0 0 0 0 0 0 0 0 0 0 0 0 0 0 0 0 0 0 1 1 1
4 7 11 14 17 17 14 13 15 17 15 11 8 5 4 2 1 0 0 0 0 0 0 0 0 0 0 0 0 0 0 0 0 0 0 0 0 0 0 0 1 0 0
1 2 5 9 12 14 12 8 9 13 13 12 9 6 5 4 2 0 0 0 0 0 0 0 0 0 0 1 1 0 0 0 0 0 0 0 0 0 0 0 0 0 0
0 0 1 4 9 12 9 5 6 10 13 12 9 6 6 6 4 1 1 0 0 0 0 0 0 0 0 1 1 0 0 0 0 0 0 0 0 1 1 1 0 0 0
1 1 1 3 7 11 9 5 3 6 9 10 7 5 6 7 5 3 2 1 0 0 1 1 1 0 0 1 1 0 0 0 0 0 0 0 1 2 2 2 2 1 1
3 2 2 2 5 9 9 6 3 2 4 5 4 3 5 7 7 5 3 1 1 1 2 2 1 0 0 0 0 0 0 0 0 0 0 0 1 3 3 3 4 4 3
8 6 3 2 4 6 8 7 4 2 1 1 1 1 2 6 8 7 5 4 5 6 6 4 3 3 3 2 2 1 0 1 2 1 1 2 2 2 3 3 4 5 5
16 12 10 10 9 8 10 11 10 8 6 5 4 3 3 5 9 12 11 10 14 17 16 13 13 13 10 6 4 2 2 2 3 3 4 4 4 2 2 2 2 3 4
20 20 20 21 19 17 17 19 21 21 18 17 16 12 10 11 15 18 18 19 24 29 27 25 28 28 21 11 6 4 4 3 3 4 5 5 5 3 1 0 1 1 2
22 24 25 27 28 26 24 25 27 27 28 29 28 23 19 20 22 25 25 27 33 36 32 33 37 35 26 16 9 6 5 3 2 3 4 4 4 2 0 0 1 1 2
18 21 24 27 30 30 29 27 26 27 29 29 27 23 19 18 20 24 27 31 36 37 33 34 38 34 26 18 12 8 5 2 1 2 2 2 1 0 0 1 2 2 2
11 14 19 23 26 28 28 26 23 21 21 18 14 13 13 12 13 15 18 22 27 30 29 32 34 31 24 18 13 10 5 1 0 0 0 0 0 0 0 1 1 2 2
6 8 11 15 18 20 21 19 16 13 11 7 4 4 6 7 7 7 8 9 13 18 21 24 27 27 22 17 12 9 6 2 0 0 0 0 0 0 1 0 1 1 1
5 6 7 9 11 12 13 12 11 9 5 2 0 0 2 3 3 3 2 3 5 9 11 13 17 20 18 14 9 7 5 3 1 0 0 0 0 0 0 0 0 0 0
6 6 6 7 7 8 8 8 8 7 3 1 0 0 0 1 1 1 0 1 2 4 5 5 8 11 13 11 7 5 4 3 2 0 0 0 0 0 0 0 0 0 0
6 6 6 6 6 5 5 5 5 4 2 0 0 0 0 0 0 0 0 0 1 2 2 2 3 6 8 7 6 5 4 5 4 1 0 0 0 0 0 0 0 0 0

GEFSSE_con_prob3kmehi_060.txt.gz
EHI
1 2 4 4 3 2 1 1 2 4 5 6 4 1 0 0 0 0 0 0 0 0 0 0 0 0 0 0 0 0 0 0 0 0 0 0 0 0 0 0 0 0 0
2 4 4 3 3 4 4 4 5 7 8 7 4 1 0 0 0 0 0 0 0 0 0 0 0 0 0 0 0 0 0 0 0 0 0 0 0 0 0 0 0 0 0
4 6 5 3 4 6 8 9 10 13 14 10 4 1 0 0 0 0 0 0 0 0 0 0 0 0 0 0 0 0 0 0 0 0 0 0 0 0 0 0 0 0 0
4 5 5 4 4 5 8 9 13 16 16 12 5 1 0 0 0 0 0 0 0 0 0 0 0 0 0 0 0 0 0 0 0 0 0 0 0 0 0 0 0 0 0
2 3 4 5 5 5 6 7 12 16 16 11 6 2 1 1 0 0 0 0 0 0 0 0 0 0 0 0 0 0 0 0 0 0 0 0 0 1 1 0 0 0 0
1 2 6 7 6 5 6 8 11 16 16 12 8 5 3 2 1 0 0 0 0 0 0 0 0 0 0 0 0 0 0 0 0 0 0 0 1 2 2 1 1 1 0
1 3 8 11 8 6 8 10 13 17 19 17 14 11 7 4 3 1 0 0 0 0 0 0 0 0 0 0 0 0 0 0 0 0 0 0 1 2 2 2 2 2 2
1 3 7 9 8 8 9 10 13 17 20 20 18 14 10 7 5 2 0 0 0 0 0 0 0 0 0 0 0 0 0 0 0 0 0 1 2 2 1 1 1 2 3
0 1 3 4 5 6 7 9 12 14 16 16 15 13 10 8 6 4 1 0 0 0 0 0 0 0 0 0 0 0 0 0 0 0 0 4 8 5 0 0 0 1 2
0 0 0 0 1 2 3 7 10 11 10 9 9 8 6 5 5 5 3 2 1 0 0 0 0 0 0 0 0 0 0 1 1 0 1 9 17 11 2 1 0 0 1
1 0 0 0 0 0 1 4 8 8 6 5 4 3 2 2 3 4 5 6 5 1 1 0 0 0 0 0 1 1 1 1 1 1 6 19 25 14 4 2 2 2 2
3 1 0 0 0 0 1 2 3 4 5 5 4 4 4 3 3 3 6 10 8 3 1 0 0 0 0 0 2 3 1 1 1 2 14 32 30 13 4 3 4 4 4
2 1 0 1 1 2 3 4 4 5 7 7 6 6 6 5 4 3 5 8 9 5 3 2 1 1 0 0 1 1 1 1 2 3 18 36 31 12 3 2 3 4 3
1 0 1 4 6 7 8 8 7 8 9 7 6 6 6 5 4 4 6 7 7 6 4 4 4 3 2 1 0 0 0 1 2 5 16 27 24 11 3 1 1 2 2
0 0 3 8 12 15 17 14 10 8 7 4 3 5 5 4 2 3 7 9 7 6 7 6 5 7 7 6 3 1 1 2 3 5 11 18 17 10 4 1 1 2 2
1 2 6 11 17 23 24 19 12 8 7 4 3 5 5 4 4 5 8 9 9 10 14 11 8 10 13 12 7 5 5 6 7 7 7 11 12 9 5 3 3 3 3
4 7 10 12 17 24 27 22 13 9 8 8 8 8 8 6 7 9 10 12 15 18 21 19 14 15 19 19 14 11 11 13 12 8 7 9 11 11 10 9 7 6 6
10 14 13 10 13 21 25 21 14 9 11 13 14 13 11 8 9 13 16 19 25 29 30 28 27 30 32 28 25 22 20 20 16 10 7 10 16 17 18 20 18 14 11
18 17 14 11 13 19 22 20 16 13 15 16 15 15 14 10 11 16 19 23 29 34 36 37 44 50 48 40 33 31 30 26 21 14 9 11 17 19 19 25 27 22 15
22 19 15 15 19 23 23 23 20 18 16 13 11 11 12 11 11 13 16 17 23 29 32 39 49 57 58 51 41 36 33 28 24 20 15 11 11 11 13 22 29 25 20
23 22 20 21 24 26 25 25 23 19 13 10 8 7 8 8 8 8 9 12 18 23 25 31 43 52 57 58 53 44 35 29 25 23 20 15 9 7 10 19 27 29 27
28 25 23 21 21 21 22 22 21 17 12 10 9 7 5 4 4 4 7 11 17 20 21 25 35 44 50 56 59 53 42 34 31 27 23 19 14 12 11 15 21 27 28
32 27 20 17 16 16 17 18 18 17 13 11 10 7 5 3 3 3 5 9 14 16 17 20 27 35 42 48 53 53 48 43 39 34 24 18 18 18 14 11 14 18 20
30 24 18 16 15 15 16 18 19 16 12 9 8 8 7 5 4 4 5 7 9 11 11 13 17 24 30 35 40 44 45 44 42 35 23 16 18 19 15 13 15 16 15
23 21 18 18 18 18 20 23 23 19 13 10 10 10 8 5 3 3 3 4 5 6 5 6 9 13 17 22 28 33 36 38 38 33 24 19 20 20 17 18 20 19 16
18 19 19 20 22 24 26 27 27 24 20 16 14 11 7 4 2 1 1 1 2 3 2 3 4 7 10 15 22 28 32 35 36 32 26 24 25 23 19 20 23 21 18

GEFSSE_con_prob3kmehi_066.txt.gz
EHI
23 28 39 30 10 4 3 3 3 3 3 3 3 3 2 1 1 3 3 3 2 1 0 0 0 0 0 0 1 2 3 2 2 2 1 1 2 2 2 2 2 2 3
27 27 36 30 11 4 3 3 3 3 3 3 3 3 2 1 2 3 3 3 3 2 1 0 0 0 0 0 1 3 3 1 1 1 0 0 1 1 1 1 2 2 2
23 20 25 24 11 3 3 3 3 3 3 3 3 3 3 2 3 3 3 3 3 3 2 1 0 0 0 1 2 3 3 1 0 0 0 0 0 0 0 0 1 1 1
13 10 13 15 9 3 3 3 3 3 3 3 3 3 3 3 3 3 3 3 3 3 3 2 1 1 1 2 3 3 3 2 1 0 0 0 1 2 1 0 0 0 0
9 7 10 13 8 4 3 3 3 3 3 3 3 3 3 3 3 3 3 2 1 1 2 3 2 2 2 3 3 3 3 2 1 0 0 1 6 8 5 1 0 0 0
12 11 13 13 9 4 3 3 3 3 3 3 3 3 3 3 3 3 3 1 0 1 1 2 2 2 3 3 3 3 3 2 1 0 0 5 17 24 16 5 0 0 0
23 20 15 14 11 5 3 3 3 3 3 3 3 3 3 3 3 3 3 2 1 1 1 1 1 2 3 3 4 4 4 3 1 0 0 11 35 49 37 18 6 2 0
39 30 17 13 11 5 3 3 3 3 3 3 3 3 3 3 3 3 3 3 3 3 3 3 3 3 3 4 5 6 5 3 1 0 0 18 55 74 61 38 19 7 2
52 38 18 10 8 5 3 3 3 4 4 3 3 3 3 4 4 4 5 6 6 6 6 6 6 5 5 7 8 8 7 4 1 0 0 21 63 87 79 58 33 15 7
54 38 18 9 7 4 5 6 7 8 8 6 6 5 4 5 7 12 16 19 16 12 10 9 9 8 8 10 12 12 10 6 2 0 2 25 65 90 86 66 40 21 12
45 35 23 19 13 6 10 16 17 16 16 15 13 14 12 8 8 18 30 39 41 35 27 21 16 14 11 11 18 23 18 10 4 2 9 35 70 89 86 69 46 24 14
36 31 31 33 21 9 19 30 26 23 31 31 26 28 28 19 11 17 37 58 65 59 46 33 25 19 13 10 20 32 25 11 6 7 21 50 76 88 86 74 53 29 16
31 28 34 42 31 15 24 36 30 31 45 50 43 42 44 38 25 22 41 65 73 66 51 38 31 25 16 10 17 29 27 15 11 17 38 65 83 90 89 79 58 33 19
29 28 38 52 46 29 29 36 35 35 47 59 63 61 61 60 49 41 51 66 71 65 56 46 41 37 28 20 19 25 27 21 18 28 51 72 85 88 86 79 60 36 23
34 35 50 68 67 53 45 44 41 40 45 59 71 75 75 77 71 64 66 71 67 63 63 60 55 52 46 36 30 28 28 26 25 35 53 70 79 80 78 73 60 41 29
47 51 67 82 85 77 66 56 49 47 51 58 68 74 78 81 82 80 79 74 65 60 62 65 60 56 53 47 41 36 33 32 33 40 52 65 71 70 70 69 62 47 37
66 74 82 87 91 90 81 68 56 51 54 60 65 70 76 80 81 81 78 72 65 62 64 64 57 51 48 46 45 44 42 42 44 46 51 59 64 63 62 64 62 52 44
83 90 90 86 91 94 88 76 61 52 53 60 65 69 74 73 71 71 71 67 65 64 65 60 53 49 46 43 43 44 44 46 45 44 46 51 57 58 55 57 57 53 48
93 95 93 89 90 90 86 76 61 50 50 55 62 67 66 58 53 54 57 57 57 58 58 53 50 52 49 43 37 35 40 42 40 37 38 42 47 51 50 50 51 48 45
95 95 94 92 87 82 78 70 59 51 49 49 56 62 55 45 40 38 39 40 41 44 46 46 45 47 46 41 29 24 30 35 34 32 32 34 37 41 41 44 48 47 43
93 94 93 88 80 75 72 67 59 53 47 44 49 53 46 36 30 27 26 26 27 29 33 34 35 35 35 35 30 23 22 27 28 29 31 33 32 32 32 37 45 48 47
88 87 86 81 74 69 66 62 58 53 46 41 45 48 42 32 23 20 20 20 20 21 21 23 24 23 23 28 31 27 20 20 22 24 30 33 31 28 27 30 38 45 47
78 78 76 74 71 67 62 57 55 55 50 46 51 53 46 34 23 19 18 17 15 15 14 15 17 16 16 20 24 24 21 18 18 20 24 27 27 26 25 25 28 35 39
67 71 74 74 73 71 66 62 62 62 57 57 62 63 56 44 31 22 18 17 15 12 10 10 11 12 11 12 14 17 17 15 13 13 14 16 19 24 26 23 22 24 27
54 62 72 76 76 75 72 71 73 71 67 67 69 68 65 56 42 27 19 19 18 13 8 7 7 7 7 6 7 8 9 10 9 6 5 6 10 17 23 24 21 19 19
47 53 65 74 77 75 72 72 76 77 75 73 71 69 68 62 49 33 22 22 21 14 9 6 5 4 4 4 3 3 4 5 6 4 1 1 5 11 19 24 23 19 17